Location: Complexul Astronomic Baia Mare
(47.6577°N, 23.5639°E)
Time: 06:52:23
(UTC+03:00)

ISS - Pass Details

Date: 23 May 2017
Orbit: 402 x 408 km, 51.6° (Epoch: 29 May)

Event Time Altitude Azimuth Distance (km) Brightness Sun altitude
Exits shadow 00:42:23 61° 23° (NNE) 465 -3.4 -21.2°
Drops below altitude 10° 00:45:19 10° 64° (ENE) 1,469 -0.8 -21.3°
Sets 00:47:25 0° 67° (ENE) 2,329 0.2 -21.3°
